Jaipur, India

12:12 AM IST on February 14, 2016 (GMT +0530)
Jaipur

Weather History for 42348 - November, 2012

Change the Weather History Date:

Friday, November 23, 2012

  Actual Average Record
Temperature  
Mean Temperature 70 °F -  
Max Temperature 83 °F - - ()
Min Temperature 57 °F - - ()
Cooling Degree Days 5    
Growing Degree Days 20 (Base 50)    
Moisture  
Dew Point 45 °F    
Average Humidity 46    
Maximum Humidity 71    
Minimum Humidity 21    
Precipitation  
Precipitation 0.00 in - - ()
Sea Level Pressure  
Sea Level Pressure 29.96 in    
Wind  
Wind Speed 1 mph ()    
Max Wind Speed 6 mph    
Max Gust Speed -    
Visibility 1.4 miles    
Events      
T = Trace of Precipitation, MM = Missing Value Source: Averaged Metar Reports

Daily Weather History Graph

Daily Weather History Graph

Search for Another Location

Airport or City:

Trip Planner

Search our weather history database for the weather conditions in past years. The results will help you decide how hot, cold, wet, or windy it might be!

Date:

Astronomy

Nov. 23, 2012 Rise Set
Actual Time 6:52 AM IST 5:33 PM IST
Civil Twilight 6:27 AM IST 5:58 PM IST
Nautical Twilight 5:59 AM IST 6:26 PM IST
Astronomical Twilight 5:31 AM IST 6:54 PM IST
Moon 2:13 PM IST (11/23) 2:08 AM IST (11/23)
Length of Visible Light 11h 31m
Length of Day
10h 41m
Waxing Gibbous, 76% of the Moon is Illuminated
Nov 23
Waxing Gibbous
Nov 28
Full
Dec 6
Last Quarter
Dec 13
New
Dec 20
First Quarter

Hourly Weather History & Observations

Time (IST) Temp. Dew Point Humidity Pressure Visibility Wind Dir Wind Speed Gust Speed Precip Events Conditions
12:00 AM 62.6 °F 46.4 °F 55% 29.98 in 1.0 mi Calm Calm - N/A   Smoke
1:00 AM 60.8 °F 46.4 °F 59% 29.95 in 1.0 mi Calm Calm - N/A   Smoke
2:00 AM 60.8 °F 46.4 °F 59% 29.95 in 1.0 mi Calm Calm - N/A   Smoke
2:30 AM 59 °F 52 °F 71% 29.93 in 1 mi 1.2 mph - -   Smoke
3:00 AM 60.8 °F 44.6 °F 55% 29.95 in 1.0 mi Calm Calm - N/A   Smoke
4:00 AM 59.0 °F 44.6 °F 59% 29.95 in 1.0 mi Calm Calm - N/A   Smoke
5:00 AM 59.0 °F 42.8 °F 55% 29.95 in 1.0 mi Calm Calm - N/A   Smoke
5:30 AM 59 °F 49 °F 59% 29.93 in 1 mi Calm Calm - -   Smoke
5:30 AM 57.2 °F 42.8 °F 59% 29.95 in 1.0 mi Calm Calm - N/A   Smoke
6:00 AM 59.0 °F 44.6 °F 59% 29.95 in 1.0 mi Calm Calm - N/A   Smoke
7:00 AM 59.0 °F 44.6 °F 59% 29.98 in 1.0 mi Calm Calm - N/A   Smoke
8:00 AM 62.6 °F 42.8 °F 48% 29.98 in 1.0 mi Calm Calm - N/A   Smoke
8:30 AM 66.2 °F 44.6 °F 46% 30.01 in 1.2 mi Calm Calm - N/A   Smoke
9:00 AM 68.0 °F 41.0 °F 37% 30.01 in 1.6 mi East 5.8 mph - N/A   Smoke
11:00 AM 73.4 °F 44.6 °F 36% 30.04 in 2.2 mi SSE 4.6 mph - N/A   Haze
11:30 AM 77 °F 47 °F 24% 29.94 in 1 mi SE 4.6 mph - -   Haze
12:00 PM 75.2 °F 46.4 °F 36% 30.01 in 2.2 mi South 4.6 mph - N/A   Haze
1:00 PM 77.0 °F 46.4 °F 34% 29.98 in 2.5 mi SSW 5.8 mph - N/A   Haze
2:00 PM 78.8 °F 44.6 °F 30% 29.92 in 2.5 mi SW 5.8 mph - N/A   Haze
3:00 PM 78.8 °F 42.8 °F 28% 29.92 in 2.5 mi Variable 5.8 mph - N/A   Haze
4:00 PM 78.8 °F 42.8 °F 28% 29.92 in 2.5 mi NW 5.8 mph - N/A   Haze
5:00 PM 77.0 °F 35.6 °F 22% 29.92 in 2.5 mi WNW 4.6 mph - N/A   Haze
5:30 PM 76 °F 44 °F 21% 29.86 in 1 mi Calm Calm - -   Haze
7:00 PM 68.0 °F 44.6 °F 43% 29.95 in 1.0 mi Calm Calm - N/A   Smoke
8:00 PM 66.2 °F 46.4 °F 49% 29.95 in 1.0 mi Calm Calm - N/A   Smoke
8:30 PM 65 °F 49 °F 45% 29.92 in 1 mi Calm Calm - -   Smoke
9:00 PM 64.4 °F 46.4 °F 52% 29.98 in 1.2 mi Calm Calm - N/A   Smoke
10:00 PM 64.4 °F 46.4 °F 52% 29.98 in 1.2 mi Calm Calm - N/A   Smoke
11:00 PM 60.8 °F 44.6 °F 55% 29.98 in 1.2 mi Calm Calm - N/A   Smoke